Home   Weather   Lomé   Past weeks

Flag for Togo Past Weather in Lomé, Togo — Yesterday and Last 2 Weeks

Now
90 °F

Passing clouds.


Feels Like: 103 °F
Forecast: N/A
Wind: 18 mph from Southwest

Location: Lome Airport

Current Time: Feb 28, 2017 at 4:56:55 pm

Latest Report: Feb 28, 2017 at 4:00 pm


Visibility: N/A

Pressure: 29.74 "Hg

Humidity: 67%

Dew Point: 77 °F

Location of LoméLocation

Past Weather in Lomé — Graph

°F

Lomé Temperature Yesterday

Maximum temperature yesterday: 90 °F (at 12:00 pm)
Minimum temperature yesterday: 77 °F (at 2:00 am)
Average temperature yesterday: 83 °F

High & Low Weather Summary for the Past Weeks

 TemperatureHumidityPressure
High97 °F (Feb 17, 2:00 pm)100% (Feb 15, 4:00 am)29.95 "Hg (Feb 15, 4:00 am)
Low75 °F (Feb 19, 5:00 am)10% (Feb 18, 1:00 pm)29.74 "Hg (Feb 13, 3:00 pm)
Average85 °F77%29.84 "Hg
* Reported Feb 13 3:00 pm — Feb 28 3:00 pm, Lomé, Weather by CustomWeather, © 2017

Note: Actual official high and low records may vary slightly from our data, if they occured in-between our weather recording intervals... More about our weather records

Advertising

Lomé Weather History for the Previous 24 Hours

Scroll right to see more
 ConditionsComfort  
Time TempWeatherWind HumidityBarometerVisibility
3:00 pm
Tue, Feb 28
91 °FPassing clouds.20 mph63%29.74 "HgN/A
2:00 pm91 °FPassing clouds.17 mph59%29.77 "HgN/A
1:00 pm91 °FPassing clouds.15 mph59%29.80 "HgN/A
12:00 pm91 °FPassing clouds.14 mph63%29.80 "HgN/A
11:00 am91 °FPassing clouds.12 mph63%29.83 "HgN/A
10:00 am90 °FScattered clouds.10 mph67%29.86 "HgN/A
9:00 am86 °FScattered clouds.7 mph75%29.86 "HgN/A
8:00 am82 °FPassing clouds.5 mph89%29.83 "Hg5 mi
7:00 am81 °FPassing clouds.5 mph94%29.80 "Hg4 mi
6:00 am81 °FPassing clouds.6 mph94%29.77 "Hg5 mi
5:00 am82 °FPassing clouds.52 mph89%29.77 "HgN/A
4:00 am82 °FPassing clouds.6 mph89%29.74 "HgN/A
3:00 am82 °FPassing clouds.5 mph89%29.74 "HgN/A
2:00 am82 °FPassing clouds.78 mph89%29.77 "HgN/A
1:00 am82 °FPassing clouds.8 mph89%29.77 "HgN/A
12:00 am84 °FPassing clouds.8 mph84%29.80 "HgN/A
11:00 pm
Mon, Feb 27
84 °FPassing clouds.8 mph84%29.80 "HgN/A
10:00 pm84 °FPassing clouds.10 mph84%29.80 "HgN/A
9:00 pm84 °FPassing clouds.12 mph84%29.80 "HgN/A
8:00 pm84 °FPassing clouds.13 mph84%29.80 "HgN/A
7:00 pm84 °FPassing clouds.12 mph79%29.77 "HgN/A
6:00 pm84 °FPassing clouds.15 mph79%29.74 "HgN/A
5:00 pm86 °FPassing clouds.15 mph75%29.74 "HgN/A
4:00 pm88 °FPassing clouds.16 mph66%29.74 "HgN/A
Weather by CustomWeather, © 2017

See weather overviewHow to use our weather pages